Regional Weather Roundup
Issued by NWS

Home | Current Version | Previous Version | Text Only | Print | Product List | Glossary Off
Versions: 1 2 3 4 5 6 7 8 9 10 11 12 13 14 15 16 17 18 19 20 21 22 23 24 25 26 27 28 29 30 31 32 33 34 35 36 37 38 39 40 41 42 43 44 45 46 47 48 49 50

119
ASUS43 KFSD 281710
RWRSD

WEATHER ROUNDUP FOR SOUTH DAKOTA
NATIONAL WEATHER SERVICE SIOUX FALLS SD
1200 PM CDT SUN AUG 28 2016

NOTE: "FAIR" INDICATES FEW OR NO CLOUDS BELOW 12,000 FEET WITH NO
SIGNIFICANT WEATHER AND/OR OBSTRUCTIONS TO VISIBILITY.


SDZ001>005-009-010-012>017-281800-
NORTHWEST AND NORTH CENTRAL SOUTH DAKOTA

CITY           SKY/WX    TMP DP  RH WIND       PRES   REMARKS
BUFFALO          N/A     83  51  33 W3        29.90S
FAITH            N/A     83  54  36 NE3       29.95R
MOBRIDGE       SUNNY     82  65  56 S8        29.90R
$$

SDZ012>016-024>037-041>051-057-063-072>074-281800-
SOUTHWEST AND SOUTH CENTRAL SOUTH DAKOTA

CITY           SKY/WX    TMP DP  RH WIND       PRES   REMARKS
RAPID CTY ARPT SUNNY     81  50  33 CALM      29.99R
PIERRE         SUNNY     84  64  50 S10       29.92R
CUSTER         SUNNY     80  35  19 CALM      30.15R
ELLSWORTH AFB  SUNNY     81  46  29 VRB3      29.99
PHILIP         SUNNY     84  59  42 SW8       29.94R
PINE RIDGE     SUNNY     83  50  31 SW9       30.03R
WINNER         FAIR      89  65  44 S14       29.98F
$$

SDZ004>011-016>023-039-040-281800-
NORTHEAST SOUTH DAKOTA

CITY           SKY/WX    TMP DP  RH WIND       PRES   REMARKS
ABERDEEN       SUNNY     82  68  62 S20       29.96R
WATERTOWN      SUNNY     80  71  74 SE14G24   30.04S
BROOKINGS      SUNNY     79  71  76 SE17G23   30.07S
SISSETON         N/A     77  68  73 S21G28    30.00S
$$

SDZ017-020-022-023-036>040-048>070-281800-
SOUTHEAST SOUTH DAKOTA

CITY           SKY/WX    TMP DP  RH WIND       PRES   REMARKS
SIOUX FALLS    MOSUNNY   83  73  72 S15       30.07F
HURON          SUNNY     82  69  64 SE14      29.98S
CHAMBERLAIN    SUNNY     88  69  53 S14       29.97S
MITCHELL       SUNNY     83  70  64 S16       30.01S
YANKTON        SUNNY     84  70  61 SE14G20   30.03S
$$

ABBREVIATIONS USED IN REMARKS
   TC - TEMPERATURE IN CELSIUS
  WCI - WIND CHILL INDEX
   HX - HEAT INDEX
  VSB - VISIBILITY





USA.gov is the U.S. government's official web portal to all federal, state and local government web resources and services.